星链-2601 (STARLINK-2601 )

导读

STARLINK-2601是美国SpaceX公司星链(Starlink)星座的一员,于2021年5月4日由猎鹰9号火箭发射入轨,属于低轨卫星互联网星座。星链星座旨在为全球提供覆盖偏远地区的卫星互联网服务,单颗星链V1版本卫星质量约260千克,设计寿命超5年,配备霍尔推进器可自主规避太空碰撞。该卫星当前仍处于在轨服役状态,是星链全球卫星互联网组网的组成部分。

Basic Information
目录编号:
48384
目录名称:
STARLINK-2601
国际标识:
2021-038AH
轨道中心:
EARTH
卫星名称:
星链-2601
卫星全名:
星链-2601 (STARLINK-2601 )
卫星状态:
已陨落 最后检测时间 2024-05-12
发射日期:
2021-05-04 UTC
国别 :
美国 (US)
星等 :
--
Orbit Information
数据来源 国际轨道数据
星历时间: 2024-05-12T19:57:12+0800
轨道信息已过期763天
半长轴: 6566.164km
偏心率: 0.0005471
轨道倾角: 53.042°
近地点辐角 238.730°
升交点赤经 69.816°
平近点角 121.590°
近地点: 184.436km
远地点: 191.622km
周期: 88.253分钟
每日圈数: 16.31681
Detailed Information
固有亮度:
5
最大亮度:
2.5
卫星平台:
Starlink V1.0
覆盖范围:
全球
运营商:
太空探索技术公司
运营商所在国:
美国
制造商(研发单位):
太空探索技术公司
制造商所在国:
美国
使用方式:
暂无
Satellite Introduction
星链(Starlink)计划是由太空探索技术公司(SpaceX)提出的一个巨型低轨卫星互联网星座项目,计划在2019年至2024年间在太空搭建由约1.2万颗卫星组成的“星链”网络,其中1584颗将部署在地球上空550千米处的近地轨道,并从2020年开始工作。该卫星已陨落。